TimePST,TemperatureF,Dew PointF,Humidity,Sea Level PressureIn,VisibilityMPH,Wind Direction,Wind SpeedMPH,Gust SpeedMPH,PrecipitationIn,Events,Conditions,WindDirDegrees,DateUTC
12:53 AM,34.0,23.0,64,29.99,10.0,SE,6.9,-,N/A,,Partly Cloudy,140,2013-01-23 08:53:00
1:53 AM,34.0,23.0,64,29.99,10.0,SE,6.9,-,N/A,,Clear,130,2013-01-23 09:53:00
2:53 AM,34.0,23.0,64,29.99,10.0,ESE,6.9,-,N/A,,Overcast,120,2013-01-23 10:53:00
3:53 AM,34.0,24.1,67,29.96,10.0,East,5.8,-,N/A,,Mostly Cloudy,100,2013-01-23 11:53:00
4:53 AM,34.0,23.0,64,29.92,10.0,ESE,4.6,-,N/A,,Overcast,120,2013-01-23 12:53:00
5:53 AM,35.1,23.0,61,29.95,10.0,Calm,Calm,-,N/A,,Overcast,0,2013-01-23 13:53:00
6:53 AM,34.0,25.0,70,29.95,10.0,Calm,Calm,-,N/A,,Mostly Cloudy,0,2013-01-23 14:53:00
7:53 AM,34.0,23.0,64,29.93,10.0,SE,4.6,-,N/A,,Overcast,130,2013-01-23 15:53:00
8:53 AM,34.0,21.9,61,29.95,10.0,SSE,5.8,-,N/A,,Overcast,150,2013-01-23 16:53:00
9:53 AM,35.1,23.0,61,29.94,10.0,SE,5.8,-,N/A,,Overcast,130,2013-01-23 17:53:00
10:53 AM,35.1,23.0,61,29.96,10.0,SE,9.2,-,N/A,,Overcast,130,2013-01-23 18:53:00
11:53 AM,35.1,25.0,67,29.96,8.0,SE,5.8,-,0.00,Rain,Light Rain,130,2013-01-23 19:53:00
12:53 PM,34.0,27.0,75,29.96,7.0,SE,5.8,-,0.02,Rain,Light Rain,140,2013-01-23 20:53:00
1:53 PM,34.0,28.9,82,29.96,5.0,ESE,8.1,-,0.05,Rain,Light Rain,120,2013-01-23 21:53:00
2:53 PM,34.0,30.0,85,29.99,3.0,SSE,4.6,-,0.04,Rain,Light Rain,160,2013-01-23 22:53:00
3:50 PM,33.8,30.2,87,30.04,4.0,ESE,4.6,-,0.07,Rain,Light Rain,120,2013-01-23 23:50:00
3:53 PM,33.1,30.0,89,30.04,4.0,SE,6.9,-,0.07,Rain,Light Rain,130,2013-01-23 23:53:00
4:50 PM,33.8,30.2,87,30.04,6.0,ESE,5.8,-,0.04,Rain,Light Rain,110,2013-01-24 00:50:00
4:53 PM,34.0,30.9,89,30.04,6.0,ESE,8.1,-,0.04,Rain,Light Rain,110,2013-01-24 00:53:00
5:40 PM,33.8,30.2,87,30.07,8.0,ESE,6.9,-,0.00,,Overcast,110,2013-01-24 01:40:00
5:53 PM,33.1,30.0,89,30.08,8.0,ESE,5.8,-,0.00,,Overcast,120,2013-01-24 01:53:00
6:05 PM,33.8,30.2,87,30.08,8.0,ESE,6.9,-,N/A,,Overcast,110,2013-01-24 02:05:00
6:38 PM,33.8,30.2,87,30.10,9.0,East,6.9,-,N/A,,Overcast,100,2013-01-24 02:38:00
6:53 PM,34.0,30.0,85,30.11,9.0,East,5.8,-,N/A,,Overcast,100,2013-01-24 02:53:00
7:20 PM,33.8,30.2,87,30.11,8.0,ESE,5.8,-,N/A,,Overcast,110,2013-01-24 03:20:00
7:36 PM,33.8,30.2,87,30.12,8.0,ESE,6.9,-,N/A,,Overcast,120,2013-01-24 03:36:00
7:53 PM,34.0,30.9,89,30.13,8.0,ESE,4.6,-,N/A,,Overcast,120,2013-01-24 03:53:00
8:53 PM,34.0,30.9,89,30.17,8.0,East,4.6,-,N/A,,Overcast,100,2013-01-24 04:53:00
9:53 PM,34.0,30.9,89,30.19,7.0,ESE,4.6,-,N/A,,Overcast,120,2013-01-24 05:53:00
10:53 PM,34.0,30.9,89,30.22,7.0,SE,3.5,-,N/A,,Overcast,130,2013-01-24 06:53:00
11:18 PM,33.8,30.2,87,30.22,7.0,Calm,Calm,-,N/A,,Overcast,0,2013-01-24 07:18:00
11:53 PM,34.0,32.0,92,30.23,6.0,Calm,Calm,-,N/A,,Overcast,0,2013-01-24 07:53:00